Find Starlink 32752

NORAD ID: 62567 Int'l Des: 2025-006 Owner: SPXS Country: US Constellation: starlink operational
LEOCIRCULAR

当前视图

正在加载3D地球...

About Starlink 32752

Starlink 32752 (NORAD 62567) is a starlink constellation satellite (v2 mini) launched Jan 10, 2025 by SPXS of US. It operates in LEO, CIRCULAR orbit with a mass of 730.00 kg.

即将过境

Passes for default location (London). Set your location on the main map for personalized predictions.

高度历史

Loading altitude history...

两行轨道根数

1 62567U 25006P 26263.48885828 .00015233 00000-0 56181-3 0 9997
2 62567 42.9971 272.5458 0000439 86.1883 273.9019 15.27585888 94655
Epoch: Sep 20, 2026 • Age: 10 hours

当前状态

高度 485.7 km
远地点 / 近地点 N/A
速度 7.63 km/s
星下点 42.51°N, 48.87°E
发射日期 Jan 10, 2025
运行时间 1.6 years
类型 internet

技术详情

分类 Payload
质量 730.00 kg
干质量 700.00 kg
长度 0.30 m
跨度 29.00 m
形状 ? Box + pan
制造商 SPXS
平台类型 Starlink V2M
阶段状态 In Orbit
所有者/国家 SPXS/US

Most Searched